Location: Gloden
(48.4833°N, 15.3167°E)
Time: 10:23:51
(UTC+00:00)

Cosmos 2180 Rocket - Pass Details

Date: 15 December 2019
Orbit: 954 x 1004 km, 82.9° (Epoch: 26 January)

Event Time Altitude Azimuth Distance (km) Brightness Sun altitude
Rises 04:30:32 0° 188° (S) 3,619 7.5 -20.9°
Reaches altitude 10° 04:33:01 10° 188° (S) 2,679 6.8 -20.5°
Maximum altitude 04:39:09 87° 277° (W) 969 4.4 -19.5°
Drops below altitude 10° 04:45:23 10° 9° (N) 2,719 6.8 -18.5°
Sets 04:47:55 0° 10° (N) 3,677 7.5 -18.1°
